Time,TemperatureF,DewpointF,PressureIn,WindDirection,WindDirectionDegrees,WindSpeedMPH,WindSpeedGustMPH,Humidity,HourlyPrecipIn,Conditions,Clouds,dailyrainin,SolarRadiationWatts/m^2,SoftwareType,DateUTC
2013-08-31 00:00:00,54.5,44.5,30.05,West,270,0.7,3.8,69,0.00,,,0.00,0.00,pywws,2013-08-30 23:00:00,
2013-08-31 00:06:00,54.3,43.2,30.05,West,270,0.7,2.2,66,0.00,,,0.00,0.00,pywws,2013-08-30 23:06:00,
2013-08-31 00:11:00,54.3,43.2,30.04,South,180,1.6,2.2,66,0.00,,,0.00,0.00,pywws,2013-08-30 23:11:00,
2013-08-31 00:16:00,54.1,43.0,30.04,North,-999,0.0,1.6,66,0.00,,,0.00,0.00,pywws,2013-08-30 23:16:00,
2013-08-31 00:22:00,54.0,42.9,30.04,North,0,0.7,2.2,66,0.00,,,0.00,0.00,pywws,2013-08-30 23:22:00,
2013-08-31 00:27:00,53.8,43.1,30.04,NW,315,1.6,3.1,67,0.00,,,0.00,0.00,pywws,2013-08-30 23:27:00,
2013-08-31 00:32:00,53.8,42.7,30.04,SE,135,0.7,2.2,66,0.00,,,0.00,0.00,pywws,2013-08-30 23:32:00,
2013-08-31 00:38:00,53.8,42.7,30.04,East,90,0.7,2.2,66,0.00,,,0.00,0.00,pywws,2013-08-30 23:38:00,
2013-08-31 00:43:00,53.6,42.5,30.03,North,-999,0.0,0.7,66,0.00,,,0.00,0.00,pywws,2013-08-30 23:43:00,
2013-08-31 00:49:00,53.2,43.0,30.03,East,90,0.7,2.2,68,0.00,,,0.00,0.00,pywws,2013-08-30 23:49:00,
2013-08-31 00:55:00,53.1,42.8,30.03,South,180,0.7,1.6,68,0.00,,,0.00,0.00,pywws,2013-08-30 23:55:00,
2013-08-31 01:00:00,53.2,43.0,30.03,West,270,0.7,1.6,68,0.00,,,0.00,0.00,pywws,2013-08-31 00:00:00,
2013-08-31 01:06:00,53.2,43.0,30.03,South,180,1.6,3.8,68,0.00,,,0.00,0.00,pywws,2013-08-31 00:06:00,
2013-08-31 01:11:00,52.9,42.6,30.02,East,90,1.6,2.2,68,0.00,,,0.00,0.00,pywws,2013-08-31 00:11:00,
2013-08-31 01:17:00,52.7,42.8,30.02,SW,225,0.7,2.2,69,0.00,,,0.00,0.00,pywws,2013-08-31 00:17:00,
2013-08-31 01:23:00,52.7,42.8,30.02,East,90,0.7,1.6,69,0.00,,,0.00,0.00,pywws,2013-08-31 00:23:00,
2013-08-31 01:28:00,52.5,42.3,30.02,SSW,202,2.2,3.8,68,0.00,,,0.00,0.00,pywws,2013-08-31 00:28:00,
2013-08-31 01:33:00,52.5,42.3,30.02,SE,135,2.2,4.5,68,0.00,,,0.00,0.00,pywws,2013-08-31 00:33:00,
2013-08-31 01:39:00,52.7,42.4,30.01,WNW,292,3.8,6.9,68,0.00,,,0.00,0.00,pywws,2013-08-31 00:39:00,
2013-08-31 01:44:00,52.9,42.2,30.01,North,-999,0.0,0.7,67,0.00,,,0.00,0.00,pywws,2013-08-31 00:44:00,
2013-08-31 01:49:00,52.9,42.2,30.01,North,-999,0.0,1.6,67,0.00,,,0.00,0.00,pywws,2013-08-31 00:49:00,
2013-08-31 01:55:00,52.7,42.1,30.01,NE,45,0.7,1.6,67,0.00,,,0.00,0.00,pywws,2013-08-31 00:55:00,
2013-08-31 02:00:00,52.3,42.5,30.01,North,-999,0.0,0.7,69,0.00,,,0.00,0.00,pywws,2013-08-31 01:00:00,
2013-08-31 02:06:00,52.2,42.3,30.01,NW,315,0.7,1.6,69,0.00,,,0.00,0.00,pywws,2013-08-31 01:06:00,
2013-08-31 02:11:00,52.0,42.5,30.01,East,90,1.6,3.1,70,0.00,,,0.00,0.00,pywws,2013-08-31 01:11:00,
2013-08-31 02:16:00,52.2,42.7,30.00,NW,315,0.7,2.2,70,0.00,,,0.00,0.00,pywws,2013-08-31 01:16:00,
2013-08-31 02:22:00,52.0,42.5,30.00,North,0,0.7,1.6,70,0.00,,,0.00,0.00,pywws,2013-08-31 01:22:00,
2013-08-31 02:27:00,51.6,42.9,30.00,North,-999,0.0,0.7,72,0.00,,,0.00,0.00,pywws,2013-08-31 01:27:00,
2013-08-31 02:32:00,51.4,42.7,30.00,North,-999,0.0,0.0,72,0.00,,,0.00,0.00,pywws,2013-08-31 01:32:00,
2013-08-31 02:38:00,50.9,42.2,30.00,North,-999,0.0,1.6,72,0.00,,,0.00,0.00,pywws,2013-08-31 01:38:00,
2013-08-31 02:43:00,50.7,42.4,30.00,East,90,2.2,4.5,73,0.00,,,0.00,0.00,pywws,2013-08-31 01:43:00,
2013-08-31 02:50:00,51.3,42.5,30.00,North,-999,0.0,0.7,72,0.00,,,0.00,0.00,pywws,2013-08-31 01:50:00,
2013-08-31 02:55:00,51.1,42.4,30.00,North,-999,0.0,0.0,72,0.00,,,0.00,0.00,pywws,2013-08-31 01:55:00,
2013-08-31 03:00:00,50.7,42.0,29.99,South,180,2.2,3.8,72,0.00,,,0.00,0.00,pywws,2013-08-31 02:00:00,
2013-08-31 03:06:00,50.7,42.0,29.99,South,180,2.2,3.8,72,0.00,,,0.00,0.00,pywws,2013-08-31 02:06:00,
2013-08-31 03:11:00,51.4,42.0,29.99,NE,45,0.7,2.2,70,0.00,,,0.00,0.00,pywws,2013-08-31 02:11:00,
2013-08-31 03:16:00,52.0,41.4,29.99,East,90,2.2,4.5,67,0.00,,,0.00,0.00,pywws,2013-08-31 02:16:00,
2013-08-31 03:22:00,52.3,41.3,29.98,NW,315,0.7,1.6,66,0.00,,,0.00,0.00,pywws,2013-08-31 02:22:00,
2013-08-31 03:27:00,52.2,41.2,29.98,West,270,1.6,3.1,66,0.00,,,0.00,0.00,pywws,2013-08-31 02:27:00,
2013-08-31 03:33:00,52.2,41.2,29.99,SE,135,2.2,3.8,66,0.00,,,0.00,0.00,pywws,2013-08-31 02:33:00,
2013-08-31 03:39:00,52.3,40.9,29.98,East,90,3.1,5.4,65,0.00,,,0.00,0.00,pywws,2013-08-31 02:39:00,
2013-08-31 03:44:00,52.5,40.7,29.98,East,90,0.7,1.6,64,0.00,,,0.00,0.00,pywws,2013-08-31 02:44:00,
2013-08-31 03:49:00,52.5,40.7,29.98,SE,135,0.7,1.6,64,0.00,,,0.00,0.00,pywws,2013-08-31 02:49:00,
2013-08-31 03:55:00,52.5,40.7,29.98,SW,225,0.7,1.6,64,0.00,,,0.00,0.00,pywws,2013-08-31 02:55:00,
2013-08-31 04:00:00,52.5,40.7,29.98,East,90,0.7,1.6,64,0.00,,,0.00,0.00,pywws,2013-08-31 03:00:00,
2013-08-31 04:06:00,52.5,40.7,29.98,North,-999,0.0,1.6,64,0.00,,,0.00,0.00,pywws,2013-08-31 03:06:00,
2013-08-31 04:11:00,52.3,40.5,29.98,SSW,202,3.8,4.5,64,0.00,,,0.00,0.00,pywws,2013-08-31 03:11:00,
2013-08-31 04:16:00,52.5,40.3,29.98,North,0,1.6,3.1,63,0.00,,,0.00,0.00,pywws,2013-08-31 03:16:00,
2013-08-31 04:22:00,52.5,40.3,29.98,East,90,0.7,2.2,63,0.00,,,0.00,0.00,pywws,2013-08-31 03:22:00,
2013-08-31 04:27:00,52.7,40.5,29.98,West,270,0.7,2.2,63,0.00,,,0.00,0.00,pywws,2013-08-31 03:27:00,
2013-08-31 04:32:00,52.7,40.5,29.98,East,90,1.6,2.2,63,0.00,,,0.00,0.00,pywws,2013-08-31 03:32:00,
2013-08-31 04:38:00,52.3,40.1,29.97,South,180,1.6,2.2,63,0.00,,,0.00,0.00,pywws,2013-08-31 03:38:00,
2013-08-31 04:43:00,52.3,40.1,29.97,North,-999,0.0,0.7,63,0.00,,,0.00,0.00,pywws,2013-08-31 03:43:00,
2013-08-31 04:49:00,52.2,40.0,29.97,South,180,0.7,2.2,63,0.00,,,0.00,0.00,pywws,2013-08-31 03:49:00,
2013-08-31 04:55:00,52.0,39.8,29.97,NE,45,0.7,1.6,63,0.00,,,0.00,0.00,pywws,2013-08-31 03:55:00,
2013-08-31 05:00:00,52.2,40.4,29.97,West,270,0.7,1.6,64,0.00,,,0.00,0.00,pywws,2013-08-31 04:00:00,
2013-08-31 05:01:00,52.2,40.4,29.97,West,270,0.7,1.6,64,0.00,,,0.00,0.00,pywws,2013-08-31 04:01:00,
2013-08-31 05:02:00,52.2,40.4,29.97,West,270,0.7,1.6,64,0.00,,,0.00,0.00,pywws,2013-08-31 04:02:00,
2013-08-31 05:05:00,52.2,40.4,29.98,West,270,0.7,1.6,64,0.00,,,0.00,0.00,pywws,2013-08-31 04:05:00,
2013-08-31 05:08:00,52.0,40.2,29.98,SW,225,0.7,1.6,64,0.00,,,0.00,0.00,pywws,2013-08-31 04:08:00,
2013-08-31 05:13:00,52.0,40.2,29.97,SW,225,1.6,3.1,64,0.00,,,0.00,0.00,pywws,2013-08-31 04:13:00,
2013-08-31 05:18:00,52.0,40.2,29.98,SE,135,1.6,3.1,64,0.00,,,0.00,0.00,pywws,2013-08-31 04:18:00,
2013-08-31 05:23:00,52.0,40.2,29.98,SW,225,0.7,2.2,64,0.00,,,0.00,0.00,pywws,2013-08-31 04:23:00,
2013-08-31 05:29:00,52.0,40.2,29.98,North,0,0.7,1.6,64,0.00,,,0.00,0.00,pywws,2013-08-31 04:29:00,
2013-08-31 05:34:00,52.2,40.4,29.98,East,90,0.7,2.2,64,0.00,,,0.00,0.00,pywws,2013-08-31 04:34:00,
2013-08-31 05:40:00,52.0,40.2,29.98,NW,315,0.7,2.2,64,0.00,,,0.00,0.00,pywws,2013-08-31 04:40:00,
2013-08-31 05:45:00,51.8,40.4,29.98,North,-999,0.0,0.7,65,0.00,,,0.00,0.00,pywws,2013-08-31 04:45:00,
2013-08-31 05:51:00,52.0,40.2,29.98,South,180,0.7,1.6,64,0.00,,,0.00,0.00,pywws,2013-08-31 04:51:00,
2013-08-31 05:56:00,52.3,40.5,29.98,NW,315,2.2,3.8,64,0.00,,,0.00,0.00,pywws,2013-08-31 04:56:00,
2013-08-31 06:02:00,52.5,40.7,29.98,SW,225,0.7,1.6,64,0.00,,,0.00,0.00,pywws,2013-08-31 05:02:00,
2013-08-31 06:07:00,52.5,40.7,29.98,SE,135,0.7,1.6,64,0.00,,,0.00,0.00,pywws,2013-08-31 05:07:00,
2013-08-31 06:12:00,52.2,40.4,29.98,South,180,1.6,2.2,64,0.00,,,0.00,0.00,pywws,2013-08-31 05:12:00,
2013-08-31 06:18:00,52.2,40.4,29.98,West,270,2.2,4.5,64,0.00,,,0.00,0.10,pywws,2013-08-31 05:18:00,
2013-08-31 06:23:00,52.3,40.5,29.98,North,-999,0.0,0.7,64,0.00,,,0.00,0.69,pywws,2013-08-31 05:23:00,
2013-08-31 06:29:00,52.2,40.0,29.98,South,180,1.6,2.2,63,0.00,,,0.00,1.73,pywws,2013-08-31 05:29:00,
2013-08-31 06:35:00,52.2,40.0,29.98,South,180,2.2,3.1,63,0.00,,,0.00,3.07,pywws,2013-08-31 05:35:00,
2013-08-31 06:40:00,52.0,40.2,29.98,South,180,1.6,2.2,64,0.00,,,0.00,4.25,pywws,2013-08-31 05:40:00,
2013-08-31 06:46:00,52.2,40.4,29.98,SE,135,0.7,1.6,64,0.00,,,0.00,6.22,pywws,2013-08-31 05:46:00,
2013-08-31 06:51:00,52.2,40.0,29.98,SE,135,1.6,3.1,63,0.00,,,0.00,8.00,pywws,2013-08-31 05:51:00,
2013-08-31 06:56:00,52.2,40.0,29.98,North,-999,0.0,0.7,63,0.00,,,0.00,9.99,pywws,2013-08-31 05:56:00,
2013-08-31 07:02:00,52.2,40.0,29.98,South,180,0.7,1.6,63,0.00,,,0.00,12.09,pywws,2013-08-31 06:02:00,
2013-08-31 07:07:00,52.5,40.3,29.98,West,270,2.2,3.8,63,0.00,,,0.00,12.76,pywws,2013-08-31 06:07:00,
2013-08-31 07:12:00,52.9,41.0,29.98,South,180,2.2,5.4,64,0.00,,,0.00,13.60,pywws,2013-08-31 06:12:00,
2013-08-31 07:18:00,53.2,41.4,29.98,SW,225,1.6,3.1,64,0.00,,,0.00,18.18,pywws,2013-08-31 06:18:00,
2013-08-31 07:23:00,53.4,41.6,29.98,NW,315,1.6,3.1,64,0.00,,,0.00,19.72,pywws,2013-08-31 06:23:00,
2013-08-31 07:29:00,53.6,41.3,29.99,East,90,1.6,3.8,63,0.00,,,0.00,22.12,pywws,2013-08-31 06:29:00,
2013-08-31 07:35:00,53.6,41.7,29.99,SW,225,2.2,3.1,64,0.00,,,0.00,24.19,pywws,2013-08-31 06:35:00,
2013-08-31 07:40:00,53.6,41.7,29.99,South,180,0.7,3.1,64,0.00,,,0.00,28.17,pywws,2013-08-31 06:40:00,
2013-08-31 07:46:00,53.8,42.3,29.99,SW,225,0.7,2.2,65,0.00,,,0.00,53.29,pywws,2013-08-31 06:46:00,
2013-08-31 07:51:00,54.1,42.6,29.99,SW,225,0.7,2.2,65,0.00,,,0.00,36.13,pywws,2013-08-31 06:51:00,
2013-08-31 07:56:00,54.1,42.6,30.00,SE,135,0.7,3.1,65,0.00,,,0.00,37.91,pywws,2013-08-31 06:56:00,
2013-08-31 08:02:00,54.1,42.6,30.00,South,180,1.6,4.5,65,0.00,,,0.00,48.84,pywws,2013-08-31 07:02:00,
2013-08-31 08:07:00,54.3,43.2,30.00,West,270,2.2,3.8,66,0.00,,,0.00,36.97,pywws,2013-08-31 07:07:00,
2013-08-31 08:12:00,54.3,43.2,30.01,South,180,3.1,4.5,66,0.00,,,0.00,46.23,pywws,2013-08-31 07:12:00,
2013-08-31 08:18:00,54.9,43.7,30.01,West,270,3.1,4.5,66,0.00,,,0.00,64.27,pywws,2013-08-31 07:18:00,
2013-08-31 08:24:00,55.0,43.5,30.01,SW,225,0.7,3.1,65,0.00,,,0.00,55.18,pywws,2013-08-31 07:24:00,
2013-08-31 08:30:00,55.2,43.7,30.01,SW,225,1.6,2.2,65,0.00,,,0.00,55.18,pywws,2013-08-31 07:30:00,
2013-08-31 08:36:00,55.4,44.2,30.01,SW,225,1.6,3.1,66,0.00,,,0.00,60.10,pywws,2013-08-31 07:36:00,
2013-08-31 08:41:00,55.6,44.4,30.01,SE,135,0.7,1.6,66,0.00,,,0.00,51.51,pywws,2013-08-31 07:41:00,
2013-08-31 08:46:00,55.8,44.6,30.02,SW,225,0.7,1.6,66,0.00,,,0.00,52.56,pywws,2013-08-31 07:46:00,
2013-08-31 08:51:00,55.8,44.6,30.02,West,270,0.7,3.1,66,0.00,,,0.00,60.52,pywws,2013-08-31 07:51:00,
2013-08-31 08:57:00,55.9,44.7,30.03,North,-999,0.0,1.6,66,0.00,,,0.00,66.03,pywws,2013-08-31 07:57:00,
2013-08-31 09:03:00,56.3,45.1,30.03,North,-999,0.0,0.7,66,0.00,,,0.00,66.49,pywws,2013-08-31 08:03:00,
2013-08-31 09:08:00,56.7,45.0,30.03,South,180,3.1,5.4,65,0.00,,,0.00,59.69,pywws,2013-08-31 08:08:00,
2013-08-31 09:13:00,56.7,45.0,30.04,SE,135,0.7,1.6,65,0.00,,,0.00,78.79,pywws,2013-08-31 08:13:00,
2013-08-31 09:19:00,57.0,45.0,30.04,NW,315,0.7,2.2,64,0.00,,,0.00,68.14,pywws,2013-08-31 08:19:00,
2013-08-31 09:24:00,57.4,44.9,30.04,NW,315,1.6,4.5,63,0.00,,,0.00,89.70,pywws,2013-08-31 08:24:00,
2013-08-31 09:29:00,57.9,45.0,30.05,North,-999,0.0,0.7,62,0.00,,,0.00,102.71,pywws,2013-08-31 08:29:00,
2013-08-31 09:35:00,58.5,45.1,30.05,North,0,0.7,1.6,61,0.00,,,0.00,102.00,pywws,2013-08-31 08:35:00,
2013-08-31 09:40:00,58.5,44.2,30.06,East,90,1.6,3.8,59,0.00,,,0.00,102.00,pywws,2013-08-31 08:40:00,
2013-08-31 09:46:00,58.5,44.2,30.06,North,0,1.6,3.8,59,0.00,,,0.00,87.20,pywws,2013-08-31 08:46:00,
2013-08-31 09:51:00,58.5,44.2,30.07,SW,225,2.2,3.1,59,0.00,,,0.00,101.55,pywws,2013-08-31 08:51:00,
2013-08-31 09:56:00,58.5,44.2,30.07,NW,315,1.6,3.1,59,0.00,,,0.00,110.83,pywws,2013-08-31 08:56:00,
2013-08-31 10:02:00,58.6,44.4,30.08,West,270,1.6,3.8,59,0.00,,,0.00,82.51,pywws,2013-08-31 09:02:00,
2013-08-31 10:07:00,58.6,44.4,30.08,SSW,202,2.2,3.8,59,0.00,,,0.00,90.14,pywws,2013-08-31 09:07:00,
2013-08-31 10:12:00,59.0,44.2,30.08,SW,225,1.6,3.1,58,0.00,,,0.00,85.02,pywws,2013-08-31 09:12:00,
2013-08-31 10:18:00,59.0,43.8,30.09,NW,315,3.1,6.9,57,0.00,,,0.00,51.87,pywws,2013-08-31 09:18:00,
2013-08-31 10:23:00,59.2,43.5,30.09,South,180,2.2,5.4,56,0.00,,,0.00,57.11,pywws,2013-08-31 09:23:00,
2013-08-31 10:29:00,59.4,43.7,30.10,NW,315,2.2,4.5,56,0.00,,,0.00,72.25,pywws,2013-08-31 09:29:00,
2013-08-31 10:35:00,59.5,43.8,30.10,ENE,68,3.8,7.6,56,0.00,,,0.00,89.08,pywws,2013-08-31 09:35:00,
2013-08-31 10:40:00,59.7,44.5,30.11,East,90,1.6,2.2,57,0.00,,,0.00,73.04,pywws,2013-08-31 09:40:00,
2013-08-31 10:46:00,59.9,45.1,30.11,SE,135,3.1,6.9,58,0.00,,,0.00,95.44,pywws,2013-08-31 09:46:00,
2013-08-31 10:51:00,59.9,44.2,30.12,North,0,3.8,5.4,56,0.00,,,0.00,98.33,pywws,2013-08-31 09:51:00,
2013-08-31 10:56:00,60.4,44.7,30.12,South,180,2.2,4.5,56,0.00,,,0.00,348.12,pywws,2013-08-31 09:56:00,
2013-08-31 11:02:00,60.4,43.7,30.12,SW,225,1.6,3.1,54,0.00,,,0.00,451.84,pywws,2013-08-31 10:02:00,
2013-08-31 11:07:00,61.0,44.2,30.13,SE,135,2.2,3.8,54,0.00,,,0.00,277.12,pywws,2013-08-31 10:07:00,
2013-08-31 11:13:00,61.9,44.6,30.13,North,0,1.6,3.8,53,0.00,,,0.00,465.47,pywws,2013-08-31 10:13:00,
2013-08-31 11:19:00,63.1,44.2,30.13,East,90,3.1,6.9,50,0.00,,,0.00,473.18,pywws,2013-08-31 10:19:00,
2013-08-31 11:24:00,63.7,43.6,30.14,South,180,4.5,6.9,48,0.00,,,0.00,187.05,pywws,2013-08-31 10:24:00,
2013-08-31 11:29:00,64.0,44.5,30.14,SE,135,3.1,5.4,49,0.00,,,0.00,498.71,pywws,2013-08-31 10:29:00,
2013-08-31 11:35:00,64.2,44.7,30.14,West,270,2.2,6.0,49,0.00,,,0.00,544.07,pywws,2013-08-31 10:35:00,
2013-08-31 11:40:00,64.6,44.4,30.15,SW,225,3.1,4.5,48,0.00,,,0.00,110.06,pywws,2013-08-31 10:40:00,
2013-08-31 11:46:00,64.4,43.7,30.16,East,90,1.6,3.1,47,0.00,,,0.00,527.16,pywws,2013-08-31 10:46:00,
2013-08-31 11:52:00,64.4,44.3,30.16,South,180,2.2,5.4,48,0.00,,,0.00,610.62,pywws,2013-08-31 10:52:00,
2013-08-31 11:57:00,65.3,44.5,30.16,NW,315,2.2,6.0,47,0.00,,,0.00,126.73,pywws,2013-08-31 10:57:00,
2013-08-31 12:03:00,64.2,44.1,30.17,East,90,3.1,6.0,48,0.00,,,0.00,405.49,pywws,2013-08-31 11:03:00,
2013-08-31 12:08:00,63.9,43.8,30.17,South,180,4.5,7.6,48,0.00,,,0.00,169.30,pywws,2013-08-31 11:08:00,
2013-08-31 12:13:00,62.8,42.8,30.17,SW,225,2.2,5.4,48,0.00,,,0.00,125.60,pywws,2013-08-31 11:13:00,
2013-08-31 12:19:00,63.1,44.2,30.18,North,0,2.2,3.8,50,0.00,,,0.00,595.73,pywws,2013-08-31 11:19:00,
2013-08-31 12:24:00,64.2,44.7,30.17,WSW,248,3.1,6.0,49,0.00,,,0.00,221.64,pywws,2013-08-31 11:24:00,
2013-08-31 12:30:00,64.2,44.1,30.18,North,0,1.6,2.2,48,0.00,,,0.00,222.08,pywws,2013-08-31 11:30:00,
2013-08-31 12:36:00,64.0,43.9,30.18,NE,45,2.2,4.5,48,0.00,,,0.00,120.93,pywws,2013-08-31 11:36:00,
2013-08-31 12:41:00,63.3,44.9,30.18,SE,135,3.1,4.5,51,0.00,,,0.00,150.21,pywws,2013-08-31 11:41:00,
2013-08-31 12:46:00,63.1,44.7,30.19,SE,135,2.2,3.8,51,0.00,,,0.00,183.45,pywws,2013-08-31 11:46:00,
2013-08-31 12:52:00,64.0,46.1,30.19,East,90,2.2,4.5,52,0.00,,,0.00,544.07,pywws,2013-08-31 11:52:00,
2013-08-31 12:57:00,66.2,45.9,30.19,East,90,2.2,3.8,48,0.00,,,0.00,567.17,pywws,2013-08-31 11:57:00,
2013-08-31 13:03:00,67.8,45.7,30.19,North,0,1.6,3.8,45,0.00,,,0.00,256.86,pywws,2013-08-31 12:03:00,
2013-08-31 13:08:00,68.5,45.1,30.19,South,180,1.6,2.2,43,0.00,,,0.00,185.75,pywws,2013-08-31 12:08:00,
2013-08-31 13:13:00,67.6,45.5,30.19,NW,315,1.6,3.1,45,0.00,,,0.00,194.45,pywws,2013-08-31 12:13:00,
2013-08-31 13:19:00,66.6,45.1,30.20,NW,315,1.6,4.5,46,0.00,,,0.00,122.01,pywws,2013-08-31 12:19:00,
2013-08-31 13:24:00,65.5,44.7,30.20,East,90,2.2,3.8,47,0.00,,,0.00,213.58,pywws,2013-08-31 12:24:00,
2013-08-31 13:29:00,66.0,45.2,30.20,ENE,68,3.8,7.6,47,0.00,,,0.00,256.86,pywws,2013-08-31 12:29:00,
2013-08-31 13:35:00,66.2,44.2,30.20,SE,135,2.2,4.5,45,0.00,,,0.00,189.65,pywws,2013-08-31 12:35:00,
2013-08-31 13:40:00,65.7,44.9,30.21,NE,45,3.8,6.9,47,0.00,,,0.00,592.79,pywws,2013-08-31 12:40:00,
2013-08-31 13:46:00,66.4,45.0,30.21,South,180,4.5,7.6,46,0.00,,,0.00,554.03,pywws,2013-08-31 12:46:00,
2013-08-31 13:51:00,68.4,45.6,30.21,North,0,3.1,6.9,44,0.00,,,0.00,287.05,pywws,2013-08-31 12:51:00,
2013-08-31 13:56:00,68.0,44.7,30.21,West,270,1.6,3.1,43,0.00,,,0.00,104.82,pywws,2013-08-31 12:56:00,
2013-08-31 14:02:00,65.7,44.9,30.22,NW,315,3.1,6.0,47,0.00,,,0.00,93.47,pywws,2013-08-31 13:02:00,
2013-08-31 14:07:00,64.8,44.6,30.22,SE,135,2.2,4.5,48,0.00,,,0.00,143.86,pywws,2013-08-31 13:07:00,
2013-08-31 14:12:00,64.6,44.4,30.22,SW,225,3.8,6.9,48,0.00,,,0.00,189.65,pywws,2013-08-31 13:12:00,
2013-08-31 14:18:00,65.1,44.4,30.22,SW,225,3.1,8.3,47,0.00,,,0.00,178.59,pywws,2013-08-31 13:18:00,
2013-08-31 14:23:00,65.3,44.5,30.22,East,90,2.2,3.8,47,0.00,,,0.00,177.70,pywws,2013-08-31 13:23:00,
2013-08-31 14:29:00,65.7,45.4,30.22,South,180,3.1,6.9,48,0.00,,,0.00,211.73,pywws,2013-08-31 13:29:00,
2013-08-31 14:35:00,65.5,45.3,30.22,NW,315,4.5,8.3,48,0.00,,,0.00,211.32,pywws,2013-08-31 13:35:00,
2013-08-31 14:40:00,65.1,44.9,30.22,West,270,4.5,9.2,48,0.00,,,0.00,180.54,pywws,2013-08-31 13:40:00,
2013-08-31 14:46:00,64.8,45.1,30.22,South,180,2.2,3.8,49,0.00,,,0.00,130.50,pywws,2013-08-31 13:46:00,
2013-08-31 14:51:00,64.6,45.5,30.22,NNE,22,2.2,6.9,50,0.00,,,0.00,175.68,pywws,2013-08-31 13:51:00,
2013-08-31 14:56:00,65.1,46.5,30.22,North,0,3.1,7.6,51,0.00,,,0.00,429.98,pywws,2013-08-31 13:56:00,
2013-08-31 15:02:00,67.3,47.5,30.22,NW,315,3.1,5.4,49,0.00,,,0.00,152.61,pywws,2013-08-31 14:02:00,
2013-08-31 15:07:00,67.8,47.4,30.22,NW,315,4.5,6.9,48,0.00,,,0.00,181.45,pywws,2013-08-31 14:07:00,
2013-08-31 15:12:00,66.9,46.0,30.22,SE,135,2.2,5.4,47,0.00,,,0.00,165.50,pywws,2013-08-31 14:12:00,
2013-08-31 15:18:00,66.2,45.9,30.22,North,0,4.5,9.8,48,0.00,,,0.00,149.62,pywws,2013-08-31 14:18:00,
2013-08-31 15:23:00,66.4,46.6,30.22,SW,225,3.1,3.8,49,0.00,,,0.00,141.18,pywws,2013-08-31 14:23:00,
2013-08-31 15:29:00,65.3,46.7,30.22,NW,315,3.1,4.5,51,0.00,,,0.00,157.69,pywws,2013-08-31 14:29:00,
2013-08-31 15:35:00,64.9,47.4,30.23,North,0,3.1,6.9,53,0.00,,,0.00,123.14,pywws,2013-08-31 14:35:00,
2013-08-31 15:40:00,64.4,46.4,30.23,SE,135,3.1,5.4,52,0.00,,,0.00,79.57,pywws,2013-08-31 14:40:00,
2013-08-31 15:46:00,63.7,46.2,30.23,East,90,2.2,3.8,53,0.00,,,0.00,89.08,pywws,2013-08-31 14:46:00,
2013-08-31 15:51:00,63.3,46.4,30.23,East,90,2.2,3.8,54,0.00,,,0.00,170.49,pywws,2013-08-31 14:51:00,
2013-08-31 15:56:00,63.1,47.2,30.23,ESE,112,2.2,5.4,56,0.00,,,0.00,189.65,pywws,2013-08-31 14:56:00,
2013-08-31 16:02:00,63.5,47.0,30.22,NE,45,3.1,6.0,55,0.00,,,0.00,187.05,pywws,2013-08-31 15:02:00,
2013-08-31 16:07:00,63.9,46.4,30.22,SE,135,3.1,5.4,53,0.00,,,0.00,226.43,pywws,2013-08-31 15:07:00,
2013-08-31 16:12:00,64.0,45.5,30.23,North,0,3.8,5.4,51,0.00,,,0.00,174.46,pywws,2013-08-31 15:12:00,
2013-08-31 16:18:00,64.4,45.4,30.22,WNW,292,2.2,4.5,50,0.00,,,0.00,177.35,pywws,2013-08-31 15:18:00,
2013-08-31 16:23:00,66.0,46.8,30.22,SSW,202,0.7,2.2,50,0.00,,,0.00,306.02,pywws,2013-08-31 15:23:00,
2013-08-31 16:29:00,68.5,46.3,30.22,SE,135,2.2,3.8,45,0.00,,,0.00,270.76,pywws,2013-08-31 15:29:00,
2013-08-31 16:35:00,68.5,46.3,30.22,SW,225,2.2,5.4,45,0.00,,,0.00,244.80,pywws,2013-08-31 15:35:00,
2013-08-31 16:40:00,68.7,47.1,30.22,SE,135,2.2,3.8,46,0.00,,,0.00,274.65,pywws,2013-08-31 15:40:00,
2013-08-31 16:46:00,68.2,46.6,30.22,WNW,292,3.1,4.5,46,0.00,,,0.00,116.10,pywws,2013-08-31 15:46:00,
2013-08-31 16:51:00,66.2,46.5,30.22,NW,315,1.6,3.1,49,0.00,,,0.00,135.98,pywws,2013-08-31 15:51:00,
2013-08-31 16:56:00,65.7,48.1,30.22,SE,135,3.8,7.6,53,0.00,,,0.00,111.05,pywws,2013-08-31 15:56:00,
2013-08-31 17:02:00,65.1,46.5,30.22,East,90,2.2,4.5,51,0.00,,,0.00,64.48,pywws,2013-08-31 16:02:00,
2013-08-31 17:07:00,64.4,46.9,30.22,SW,225,1.6,2.2,53,0.00,,,0.00,62.79,pywws,2013-08-31 16:07:00,
2013-08-31 17:12:00,64.2,46.7,30.22,South,180,0.7,2.2,53,0.00,,,0.00,101.55,pywws,2013-08-31 16:12:00,
2013-08-31 17:18:00,64.2,47.2,30.22,West,270,1.6,3.1,54,0.00,,,0.00,103.63,pywws,2013-08-31 16:18:00,
2013-08-31 17:23:00,64.8,48.2,30.22,SSE,158,2.2,3.1,55,0.00,,,0.00,96.30,pywws,2013-08-31 16:23:00,
2013-08-31 17:29:00,65.1,48.5,30.22,West,270,1.6,2.2,55,0.00,,,0.00,71.23,pywws,2013-08-31 16:29:00,
2013-08-31 17:35:00,64.8,48.2,30.22,NW,315,2.2,6.0,55,0.00,,,0.00,53.29,pywws,2013-08-31 16:35:00,
2013-08-31 17:40:00,64.2,46.7,30.22,NW,315,1.6,3.8,53,0.00,,,0.00,51.15,pywws,2013-08-31 16:40:00,
2013-08-31 17:46:00,63.7,46.2,30.22,East,90,5.4,7.6,53,0.00,,,0.00,77.71,pywws,2013-08-31 16:46:00,
2013-08-31 17:51:00,63.5,46.1,30.22,NE,45,0.7,2.2,53,0.00,,,0.00,64.48,pywws,2013-08-31 16:51:00,
2013-08-31 17:56:00,63.9,46.4,30.22,NE,45,0.7,2.2,53,0.00,,,0.00,72.25,pywws,2013-08-31 16:56:00,
2013-08-31 18:02:00,63.9,46.4,30.22,North,-999,0.0,0.7,53,0.00,,,0.00,132.42,pywws,2013-08-31 17:02:00,
2013-08-31 18:07:00,64.6,47.6,30.21,SW,225,2.2,4.5,54,0.00,,,0.00,89.08,pywws,2013-08-31 17:07:00,
2013-08-31 18:12:00,64.6,46.6,30.21,SW,225,2.2,6.0,52,0.00,,,0.00,79.57,pywws,2013-08-31 17:12:00,
2013-08-31 18:18:00,64.8,47.7,30.21,NE,45,1.6,3.1,54,0.00,,,0.00,70.05,pywws,2013-08-31 17:18:00,
2013-08-31 18:23:00,65.1,47.6,30.21,North,0,0.7,1.6,53,0.00,,,0.00,68.95,pywws,2013-08-31 17:23:00,
2013-08-31 18:29:00,64.8,46.7,30.21,NW,315,1.6,3.8,52,0.00,,,0.00,48.40,pywws,2013-08-31 17:29:00,
2013-08-31 18:35:00,63.9,45.9,30.21,North,0,0.7,2.2,52,0.00,,,0.00,53.76,pywws,2013-08-31 17:35:00,
2013-08-31 18:40:00,63.5,46.1,30.21,NE,45,1.6,3.1,53,0.00,,,0.00,50.35,pywws,2013-08-31 17:40:00,
2013-08-31 18:46:00,63.9,46.9,30.21,South,180,2.2,5.4,54,0.00,,,0.00,46.23,pywws,2013-08-31 17:46:00,
2013-08-31 18:51:00,64.0,46.6,30.21,East,90,0.7,3.1,53,0.00,,,0.00,38.88,pywws,2013-08-31 17:51:00,
2013-08-31 18:56:00,63.9,46.9,30.21,NE,45,1.6,3.8,54,0.00,,,0.00,38.45,pywws,2013-08-31 17:56:00,
2013-08-31 19:02:00,63.3,46.4,30.20,NW,315,0.7,1.6,54,0.00,,,0.00,38.26,pywws,2013-08-31 18:02:00,
2013-08-31 19:07:00,62.6,46.2,30.20,SE,135,0.7,1.6,55,0.00,,,0.00,37.84,pywws,2013-08-31 18:07:00,
2013-08-31 19:12:00,62.1,46.6,30.20,SE,135,1.6,3.1,57,0.00,,,0.00,34.02,pywws,2013-08-31 18:12:00,
2013-08-31 19:18:00,61.9,46.9,30.20,East,90,0.7,2.2,58,0.00,,,0.00,32.72,pywws,2013-08-31 18:18:00,
2013-08-31 19:23:00,61.5,47.5,30.20,NE,45,2.2,3.8,60,0.00,,,0.00,28.71,pywws,2013-08-31 18:23:00,
2013-08-31 19:29:00,61.3,47.8,30.19,NE,45,1.6,3.1,61,0.00,,,0.00,27.02,pywws,2013-08-31 18:29:00,
2013-08-31 19:35:00,61.2,48.0,30.19,West,270,0.7,2.2,62,0.00,,,0.00,24.65,pywws,2013-08-31 18:35:00,
2013-08-31 19:40:00,60.8,47.7,30.19,NE,45,0.7,2.2,62,0.00,,,0.00,21.82,pywws,2013-08-31 18:40:00,
2013-08-31 19:46:00,60.4,47.8,30.20,North,-999,0.0,0.7,63,0.00,,,0.00,17.93,pywws,2013-08-31 18:46:00,
2013-08-31 19:51:00,60.3,47.6,30.19,North,0,0.7,1.6,63,0.00,,,0.00,14.29,pywws,2013-08-31 18:51:00,
2013-08-31 19:56:00,60.1,47.9,30.19,NNE,22,0.7,1.6,64,0.00,,,0.00,11.31,pywws,2013-08-31 18:56:00,
2013-08-31 20:02:00,59.9,47.7,30.19,NE,45,0.7,3.1,64,0.00,,,0.00,7.90,pywws,2013-08-31 19:02:00,
2013-08-31 20:07:00,59.5,47.3,30.19,North,0,0.7,2.2,64,0.00,,,0.00,5.58,pywws,2013-08-31 19:07:00,
2013-08-31 20:12:00,59.5,47.8,30.18,East,90,1.6,3.1,65,0.00,,,0.00,3.26,pywws,2013-08-31 19:12:00,
2013-08-31 20:18:00,59.2,47.4,30.18,ESE,112,1.6,5.4,65,0.00,,,0.00,1.24,pywws,2013-08-31 19:18:00,
2013-08-31 20:23:00,59.0,47.7,30.18,SW,225,2.2,4.5,66,0.00,,,0.00,0.49,pywws,2013-08-31 19:23:00,
2013-08-31 20:29:00,58.6,47.7,30.17,SW,225,0.7,2.2,67,0.00,,,0.00,0.49,pywws,2013-08-31 19:29:00,
2013-08-31 20:35:00,58.5,47.5,30.17,NW,315,0.7,1.6,67,0.00,,,0.00,0.00,pywws,2013-08-31 19:35:00,
2013-08-31 20:40:00,58.3,47.8,30.17,NE,45,0.7,2.2,68,0.00,,,0.00,0.00,pywws,2013-08-31 19:40:00,
2013-08-31 20:46:00,57.9,47.4,30.17,North,-999,0.0,0.7,68,0.00,,,0.00,0.00,pywws,2013-08-31 19:46:00,
2013-08-31 20:51:00,57.7,47.2,30.17,North,-999,0.0,1.6,68,0.00,,,0.00,0.00,pywws,2013-08-31 19:51:00,
2013-08-31 20:56:00,57.4,47.3,30.16,North,-999,0.0,1.6,69,0.00,,,0.00,0.00,pywws,2013-08-31 19:56:00,
2013-08-31 21:02:00,57.2,47.1,30.16,East,90,0.7,2.2,69,0.00,,,0.00,0.00,pywws,2013-08-31 20:02:00,
2013-08-31 21:07:00,56.8,47.5,30.16,SW,225,1.6,2.2,71,0.00,,,0.00,0.00,pywws,2013-08-31 20:07:00,
2013-08-31 21:13:00,56.7,47.7,30.16,SW,225,0.7,1.6,72,0.00,,,0.00,0.00,pywws,2013-08-31 20:13:00,
2013-08-31 21:19:00,56.3,47.8,30.16,North,-999,0.0,0.7,73,0.00,,,0.00,0.00,pywws,2013-08-31 20:19:00,
2013-08-31 21:24:00,56.1,47.9,30.16,SW,225,1.6,2.2,74,0.00,,,0.00,0.00,pywws,2013-08-31 20:24:00,
2013-08-31 21:29:00,55.9,48.1,30.16,West,270,1.6,3.8,75,0.00,,,0.00,0.00,pywws,2013-08-31 20:29:00,
2013-08-31 21:35:00,55.9,48.1,30.16,SW,225,0.7,3.1,75,0.00,,,0.00,0.00,pywws,2013-08-31 20:35:00,
2013-08-31 21:40:00,55.8,48.0,30.16,South,180,0.7,3.8,75,0.00,,,0.00,0.00,pywws,2013-08-31 20:40:00,
2013-08-31 21:45:00,55.8,48.0,30.16,SW,225,1.6,3.1,75,0.00,,,0.00,0.00,pywws,2013-08-31 20:45:00,
2013-08-31 21:51:00,55.8,48.0,30.15,NW,315,0.7,1.6,75,0.00,,,0.00,0.00,pywws,2013-08-31 20:51:00,
2013-08-31 21:56:00,55.6,47.8,30.15,NW,315,0.7,1.6,75,0.00,,,0.00,0.00,pywws,2013-08-31 20:56:00,
2013-08-31 22:02:00,55.4,47.6,30.15,SW,225,0.7,2.2,75,0.00,,,0.00,0.00,pywws,2013-08-31 21:02:00,
2013-08-31 22:07:00,55.4,47.6,30.15,SSW,202,2.2,4.5,75,0.00,,,0.00,0.00,pywws,2013-08-31 21:07:00,
2013-08-31 22:12:00,55.4,47.6,30.15,South,180,2.2,3.1,75,0.00,,,0.00,0.00,pywws,2013-08-31 21:12:00,
2013-08-31 22:18:00,55.6,48.1,30.14,West,270,1.6,3.8,76,0.00,,,0.00,0.00,pywws,2013-08-31 21:18:00,
2013-08-31 22:24:00,55.8,48.0,30.14,SW,225,0.7,2.2,75,0.00,,,0.00,0.00,pywws,2013-08-31 21:24:00,
2013-08-31 22:29:00,55.9,48.1,30.14,SW,225,0.7,2.2,75,0.00,,,0.00,0.00,pywws,2013-08-31 21:29:00,
2013-08-31 22:35:00,55.9,48.1,30.14,North,-999,0.0,1.6,75,0.00,,,0.00,0.00,pywws,2013-08-31 21:35:00,
2013-08-31 22:40:00,56.1,48.3,30.14,South,180,1.6,2.2,75,0.00,,,0.00,0.00,pywws,2013-08-31 21:40:00,
2013-08-31 22:46:00,56.3,48.5,30.14,SW,225,1.6,3.8,75,0.00,,,0.00,0.00,pywws,2013-08-31 21:46:00,
2013-08-31 22:51:00,56.3,48.5,30.14,SE,135,0.7,1.6,75,0.00,,,0.00,0.00,pywws,2013-08-31 21:51:00,
2013-08-31 22:56:00,56.5,48.7,30.14,SE,135,0.7,1.6,75,0.00,,,0.00,0.00,pywws,2013-08-31 21:56:00,
2013-08-31 23:02:00,56.3,48.5,30.13,South,180,0.7,1.6,75,0.00,,,0.00,0.00,pywws,2013-08-31 22:02:00,
2013-08-31 23:07:00,55.9,48.1,30.13,South,180,0.7,2.2,75,0.00,,,0.00,0.00,pywws,2013-08-31 22:07:00,
2013-08-31 23:13:00,55.8,47.6,30.13,North,-999,0.0,0.7,74,0.00,,,0.00,0.00,pywws,2013-08-31 22:13:00,
2013-08-31 23:19:00,55.4,47.3,30.13,North,0,0.7,2.2,74,0.00,,,0.00,0.00,pywws,2013-08-31 22:19:00,
2013-08-31 23:24:00,55.4,47.3,30.13,North,-999,0.0,0.7,74,0.00,,,0.00,0.00,pywws,2013-08-31 22:24:00,
2013-08-31 23:29:00,55.2,46.7,30.12,North,-999,0.0,0.7,73,0.00,,,0.00,0.00,pywws,2013-08-31 22:29:00,
2013-08-31 23:35:00,55.2,46.4,30.12,SW,225,0.7,1.6,72,0.00,,,0.00,0.00,pywws,2013-08-31 22:35:00,
2013-08-31 23:40:00,55.2,46.4,30.12,North,0,0.7,2.2,72,0.00,,,0.00,0.00,pywws,2013-08-31 22:40:00,
2013-08-31 23:46:00,55.4,46.2,30.12,South,180,2.2,3.8,71,0.00,,,0.00,0.00,pywws,2013-08-31 22:46:00,
2013-08-31 23:51:00,55.4,46.2,30.12,SSW,202,2.2,3.8,71,0.00,,,0.00,0.00,pywws,2013-08-31 22:51:00,
2013-08-31 23:56:00,55.6,46.3,30.12,West,270,1.6,3.8,71,0.00,,,0.00,0.00,pywws,2013-08-31 22:56:00,